Flag for Liechtenstein Weather past 2 weeks in Vaduz, Liechtenstein

Now
39 °F

Chilly.


Feels Like: 35 °F
Forecast: 33 / 39 °F
Wind: 6 mph from Northwest

Location: Vaduz

Current Time: Mar 4, 2015 at 6:30:46 PM

Latest Report: Mar 4, 2015 at 5:00 PM


Visibility: N/A

Pressure: 30.36 "Hg

Humidity: 71%

Dew point: 31 °F

Location of VaduzLocation

Historic Weather in Vaduz — Graph

°F

Vaduz temperature yesterday

Maximum temperature yesterday: 51 °F (at 3:00 PM)
Minimum temperature yesterday: 37 °F (at 8:00 AM)
Average temperature yesterday: 44 °F

Past Weeks' High & Low Weather Summary

 TemperatureHumidityPressure
High54 °F (Feb 21, 2:00 PM)97% (Feb 22, 12:00 AM)30.74 "Hg (Feb 22, 12:00 AM)
Low27 °F (Feb 19, 9:00 AM)22% (Feb 20, 9:00 PM)29.44 "Hg (Feb 21, 1:00 PM)
Average39 °F69%30.08 "Hg
* Reported Feb 17 5:00 PM — Mar 4 5:00 PM, Vaduz, Weather by CustomWeather, © 2015

Note: Actual official high and low records may vary slightly from our data, if they occured in-between our weather recording intervals... More about our weather records

Advertising

Vaduz weather history for previous 24 hours

 ConditionsComfort  
Time TempWeatherWind HumidityBarometerVisibility
5:00 PM
Wed, Mar 4
39 °FChilly.6 mph71%30.36 "HgN/A
4:00 PM42 °FFog.8 mph70%30.34 "Hg6 mi
3:00 PM42 °FQuite cool.6 mph58%30.33 "HgN/A
2:00 PM42 °FQuite cool.8 mph69%30.34 "HgN/A
1:00 PM42 °FFog.6 mph61%30.35 "Hg6 mi
12:00 PM39 °FChilly.3 mph83%30.37 "HgN/A
11:00 AM37 °FChilly.6 mph86%30.38 "HgN/A
10:00 AM35 °FFog.5 mph92%30.38 "Hg3 mi
9:00 AM34 °FChilly.6 mph94%30.38 "HgN/A
8:00 AM33 °FChilly.3 mph95%30.37 "HgN/A
7:00 AM34 °FRain. Overcast.8 mph94%30.36 "Hg3 mi
6:00 AM38 °FChilly.6 mph87%30.30 "HgN/A
5:00 AM41 °FQuite cool.3 mph75%30.27 "HgN/A
3:00 AM42 °FQuite cool.9 mph64%30.23 "HgN/A
2:00 AM42 °FQuite cool.9 mph64%30.24 "HgN/A
1:00 AM42 °FQuite cool.6 mph61%30.24 "HgN/A
12:00 AM43 °FQuite cool.9 mph60%30.25 "HgN/A
11:00 PM
Tue, Mar 3
43 °FQuite cool.8 mph62%30.25 "HgN/A
10:00 PM44 °FQuite cool.5 mph55%30.24 "HgN/A
9:00 PM44 °FQuite cool.7 mph54%30.23 "HgN/A
8:00 PM45 °FCool.6 mph50%30.22 "HgN/A
7:00 PM46 °FCool.5 mph47%30.22 "HgN/A
6:00 PM47 °FCool.7 mph48%30.19 "HgN/A
Weather by CustomWeather, © 2015

See weather overviewHow to use our weather pages